Location: Doverdale
(52.2833°N, 2.2000°W)
Time: 03:12:51
(UTC+00:00)

Cosmos 1697 Rocket - Pass Details

Date: 29 October 2020
Orbit: 831 x 845 km, 71.0° (Epoch: 27 November)

Event Time Altitude Azimuth Distance (km) Brightness Sun altitude
Rises 18:50:01 0° 201° (SSW) 3,367 6.1 -19.6°
Reaches altitude 10° 18:52:26 10° 199° (SSW) 2,439 5.3 -20.0°
Maximum altitude 18:58:00 71° 116° (ESE) 884 2.6 -20.9°
Enters shadow 19:01:37 23° 37° (NE) 1,728 4.0 -21.4°
